Kingman, AZ

1:14 AM MST on October 23, 2017 (GMT -0700)
Kingman

Weather History for KIGM - November, 2012

Change the Weather History Date:

Friday, November 9, 2012

  Actual Average Record
Temperature  
Mean Temperature 53 °F 53 °F  
Max Temperature 63 °F 67 °F 84 °F (1914)
Min Temperature 42 °F 39 °F 24 °F (1936)
Degree Days  
Heating Degree Days 12 12  
Month to date heating degree days 42 93  
Since 1 July heating degree days 128 232  
Cooling Degree Days 0 0  
Month to date cooling degree days 0 0  
Year to date cooling degree days 2297 2092  
Growing Degree Days 4 (Base 50)    
Moisture  
Dew Point 34 °F    
Average Humidity 49    
Maximum Humidity 61    
Minimum Humidity 36    
Precipitation  
Precipitation T in 0.02 in 0.70 in (1939)
Month to date precipitation T 0.22  
Year to date precipitation 6.88 7.22  
Sea Level Pressure  
Sea Level Pressure 29.64 in    
Wind  
Wind Speed 19 mph (SSW)    
Max Wind Speed 36 mph    
Max Gust Speed 43 mph    
Visibility 10 miles    
Events Rain    
T = Trace of Precipitation, MM = Missing Value Source: NWS Daily Summary

Daily Weather History Graph

Daily Weather History Graph

Search for Another Location

Airport or City:

Trip Planner

Search our weather history database for the weather conditions in past years. The results will help you decide how hot, cold, wet, or windy it might be!

Date:

Astronomy

Nov. 09, 2012 Rise Set
Actual Time 7:05 AM MST 5:33 PM MST
Civil Twilight 6:38 AM MST 6:00 PM MST
Nautical Twilight 6:08 AM MST 6:30 PM MST
Astronomical Twilight 5:38 AM MST 7:00 PM MST
Moon 2:18 AM MST (11/9) 2:40 PM MST (11/9)
Length of Visible Light 11h 21m
Length of Day
10h 28m
Waning Crescent, 22% of the Moon is Illuminated
Nov 9
Waning Crescent
Nov 13
New
Nov 20
First Quarter
Nov 28
Full
Dec 6
Last Quarter

Hourly Weather History & Observations

Time (MST) Temp. Windchill Dew Point Humidity Pressure Visibility Wind Dir Wind Speed Gust Speed Precip Events Conditions
12:51 AM 61.0 °F - 37.0 °F 41% 29.64 in 10.0 mi South 12.7 mph 23.0 mph N/A   Mostly Cloudy
1:51 AM 62.1 °F - 39.0 °F 43% 29.62 in 10.0 mi South 20.7 mph 25.3 mph N/A   Scattered Clouds
2:51 AM 62.1 °F - 39.9 °F 44% 29.60 in 10.0 mi South 17.3 mph 24.2 mph N/A   Partly Cloudy
3:51 AM 61.0 °F - 39.0 °F 44% 29.59 in 10.0 mi South 16.1 mph 28.8 mph N/A   Scattered Clouds
4:51 AM 59.0 °F - 39.2 °F 48% 29.75 in 10.0 mi SSE 15.0 mph - N/A   Clear
5:51 AM 57.0 °F - 43.0 °F 59% 29.60 in 10.0 mi SSE 10.4 mph 18.4 mph N/A   Mostly Cloudy
6:51 AM 57.0 °F - 42.1 °F 57% 29.60 in 10.0 mi SSW 12.7 mph 21.9 mph N/A   Partly Cloudy
7:51 AM 55.4 °F - 42.8 °F 63% 29.76 in 10.0 mi SSW 12.7 mph - N/A   Clear
8:51 AM 57.0 °F - 41.0 °F 55% 29.61 in 10.0 mi SSW 20.7 mph 27.6 mph N/A   Partly Cloudy
9:51 AM 61.0 °F - 39.0 °F 44% 29.61 in 10.0 mi SSW 29.9 mph 38.0 mph N/A   Scattered Clouds
10:51 AM 60.1 °F - 39.9 °F 47% 29.63 in 10.0 mi SSW 28.8 mph 38.0 mph N/A   Overcast
11:51 AM 61.0 °F - 37.9 °F 42% 29.61 in 10.0 mi SSW 32.2 mph 38.0 mph N/A   Partly Cloudy
12:51 PM 60.1 °F - 37.9 °F 44% 29.59 in 10.0 mi SW 29.9 mph 35.7 mph N/A   Overcast
1:51 PM 59.0 °F - 36.0 °F 42% 29.56 in 10.0 mi SSW 33.4 mph 42.6 mph 0.00 in Rain Light Rain
2:51 PM 55.0 °F - 37.9 °F 53% 29.57 in 10.0 mi WSW 19.6 mph 27.6 mph 0.00 in   Overcast
3:51 PM 55.0 °F - 34.0 °F 45% 29.58 in 10.0 mi WSW 23.0 mph 32.2 mph N/A   Partly Cloudy
4:51 PM 52.0 °F - 30.0 °F 43% 29.60 in 10.0 mi WSW 18.4 mph 26.5 mph 0.00 in Rain Light Rain
5:51 PM 50.0 °F - 28.9 °F 44% 29.62 in 10.0 mi WSW 10.4 mph - 0.00 in Rain Light Rain
6:51 PM 46.9 °F - 28.9 °F 50% 29.66 in 10.0 mi South 12.7 mph 18.4 mph 0.00 in Rain Light Rain
7:51 PM 46.0 °F 41.9 °F 30.0 °F 54% 29.67 in 10.0 mi South 8.1 mph - 0.00 in Rain Light Rain
8:51 PM 46.9 °F - 25.0 °F 42% 29.68 in 10.0 mi SSW 17.3 mph 23.0 mph 0.00 in   Overcast
9:51 PM 48.0 °F - 23.0 °F 37% 29.69 in 10.0 mi West 12.7 mph 18.4 mph 0.00 in   Overcast
10:51 PM 45.0 °F 37.6 °F 21.9 °F 40% 29.70 in 10.0 mi WSW 17.3 mph 23.0 mph N/A   Mostly Cloudy
11:51 PM 42.8 °F 34.8 °F 19.4 °F 39% 29.80 in 10.0 mi SW 17.3 mph - N/A   Partly Cloudy